Regional Weather Roundup
Issued by NWS

Home | Current Version | Previous Version | Graphics & Text | Print | Product List | Glossary On
Versions: 1 2 3 4 5 6 7 8 9 10 11 12 13 14 15 16 17 18 19 20 21 22 23 24 25 26 27 28 29 30 31 32 33 34 35 36 37 38 39 40 41 42 43 44 45 46 47 48 49 50
000
ASUS43 KLMK 011202
RWRKY
KENTUCKY REGIONAL WEATHER ROUNDUP
NATIONAL WEATHER SERVICE LOUISVILLE KY
800 AM EDT WED JUL 01 2015

NOTE "FAIR" INDICATES FEW OR NO CLOUDS BELOW 12,000 FEET
WITH NO SIGNIFICANT WEATHER AND/OR OBSTRUCTIONS TO VISIBILITY.

KYZ001>023-026-027-061>063-070>075-011300-
WESTERN AND SOUTH CENTRAL KENTUCKY

CITY           SKY/WX    TMP DP  RH WIND       PRES   REMARKS
PADUCAH        LGT RAIN  74  70  87 SW6       29.93R FOG
HENDERSON      PTSUNNY   70  66  88 SW3       29.90R
OWENSBORO      PTSUNNY   70  70 100 CALM      29.92R FOG
HOPKINSVILLE   NOT AVBL
BOWLING GREEN  MOSUNNY   74  70  87 SW6       29.95R
GLASGOW        NOT AVBL
$$

KYZ024-025-028>034-038-045-046-053-011300-
NORTH CENTRAL KENTUCKY

CITY           SKY/WX    TMP DP  RH WIND       PRES   REMARKS
LOUISVILLE/SDF CLOUDY    71  66  84 SW5       29.90R
LOUISVILLE/LOU MOSUNNY   69  65  86 CALM      29.91R FOG
FORT KNOX      NOT AVBL
$$

KYZ035>037-039>044-047>052-055>060-089>105-011300-
NORTHEAST KENTUCKY

CITY           SKY/WX    TMP DP  RH WIND       PRES   REMARKS
LEXINGTON      MOSUNNY   67  66  97 SW7       29.93R FOG
COVINGTON      PTSUNNY   65  63  93 CALM      29.92R FOG
FRANKFORT      MOSUNNY   67  65  93 CALM      29.91R FOG
$$

KYZ054-064>069-076>088-106>120-011300-
SOUTHEAST KENTUCKY

CITY           SKY/WX    TMP DP  RH WIND       PRES   REMARKS
JACKSON        CLOUDY    65  63  93 CALM      29.96R FOG
LONDON         CLOUDY    70  65  84 SW5       29.98R HAZE
SOMERSET       NOT AVBL
MIDDLESBORO    CLOUDY    66  66 100 CALM      30.00S FOG
MONTICELLO     PTSUNNY   73  73 100 CALM      29.99R FOG
$$



USA.gov is the U.S. government's official web portal to all federal, state and local government web resources and services.